Location: Helsinki
(60.1699°N, 24.9384°E)
Time: 16:24:35
(UTC+03:00)

Envisat - Visible Passes

Search period start: 16 August 2022 00:00
Search period end: 26 August 2022 00:00
Orbit: 763 x 765 km, 98.2° (Epoch: 15 August)

Date Brightness Start Highest point End Pass type
(mag) Time Alt. Az. Time Alt. Az. Time Alt. Az.
17 Aug 5.6 04:31:07 10° NE 04:34:40 19° E 04:38:12 10° SE visible
18 Aug 6.1 03:56:05 10° ENE 03:57:03 10° ENE 03:58:01 10° E visible
20 Aug 5.7 04:19:36 10° NE 04:22:40 16° E 04:25:42 10° ESE visible
22 Aug 5.4 04:44:10 10° NE 04:48:11 23° E 04:52:10 10° SE visible
23 Aug 5.8 04:08:14 10° NE 04:10:38 13° E 04:13:02 10° ESE visible
25 Aug 5.6 04:32:34 10° NE 04:36:12 19° E 04:39:49 10° SE visible
